Regional Weather Roundup
Issued by NWS

Home | Current Version | Previous Version | Text Only | Print | Product List | Glossary On
Versions: 1 2 3 4 5 6 7 8 9 10 11 12 13 14 15 16 17 18 19 20 21 22 23 24 25 26 27 28 29 30 31 32 33 34 35 36 37 38 39 40 41 42 43 44 45 46 47 48 49 50
000
ASCA44 KEWX 300920
RWRMX

LATIN AMERICA AND CARIBBEAN REGIONAL WEATHER ROUNDUP
NATIONAL WEATHER SERVICE AUSTIN/SAN ANTONIO TX
400 AM CDT MON MAR 30 2015

NOTE: "FAIR" INDICATED FEW OR NO CLOUDS BELOW 12,000 FEET WITH NO
SIGNIFICANT WEATHER AND/OR OBSTRUCTIONS TO VISIBILITY.

BAJA CALIFORNIA

CITY           SKY/WX    TMP DP  RH WIND       PRES   REMARKS
TIJUANA        PTCLDY    57  54  88 CALM      30.03F

NORTHWESTERN MEXICO

CITY           SKY/WX    TMP DP  RH WIND       PRES   REMARKS

NORTHEASTERN MEXICO

CITY           SKY/WX    TMP DP  RH WIND       PRES   REMARKS
MONTERREY      CLEAR     61  57  88 CALM      30.04F
REYNOSA        CLOUDY    66  63  88 SE9G21    30.05F
CD. VICTORIA   CLEAR     66  61  82 S14       30.08F

WESTERN MEXICO

CITY           SKY/WX    TMP DP  RH WIND       PRES   REMARKS
DEL BAJIO      CLEAR     55  43  62 NE5       30.36
GUADALAJARA    CLEAR     59  41  51 CALM      30.23F
MAZATLAN       CLEAR     61  57  88 N92       29.98F
P. VALLARTA    CLEAR     68  66  94 CALM      29.97F
ZACATECAS      CLEAR     48  32  53 CALM      30.33

CENTRAL MEXICO

CITY           SKY/WX    TMP DP  RH WIND       PRES   REMARKS
MEXICO CITY    CLEAR     54  43  66 SW2       30.40F
MORELIA        CLEAR     50  46  87 CALM      30.29
S. LUIS POTOSI CLEAR     50  41  71 CALM      30.32F
TOLUCA         CLEAR     43  41  93 CALM      30.45F

SOUTHERN MEXICO

CITY           SKY/WX    TMP DP  RH WIND       PRES   REMARKS
ACAPULCO       PTCLDY    75  70  83 E2        29.96F

YUCATAN PENINSULA

CITY           SKY/WX    TMP DP  RH WIND       PRES   REMARKS
CANCUN         MOCLDY    77  68  73 E9        30.04F
COZUMEL        MOCLDY    72  63  73 E6        30.09F
MERIDA         CLEAR     70  61  73 E7        30.11F
TAPACHULA      PTCLDY    79  73  83 CALM      29.95F

CENTRAL AMERICA

CITY           SKY/WX    TMP DP  RH WIND       PRES   REMARKS
MANAGUA        MOSUNNY   77  68  73 E7        29.94

CARIBBEAN

CITY           SKY/WX    TMP DP  RH WIND       PRES   REMARKS
ARUBA          PTCLDY    77  73  88 E9        29.94R
CURACAO        PTCLDY    79  72  78 E10       29.94S
KINGSTON       MOCLDY    75  72  88 SE10      29.97S
NASSAU           N/A     68  55  64 VRB1      30.19S
SAN JUAN       PTCLDY    73  70  88 CALM      30.04R
SANTO DOMINGO  PTCLDY    72  70  94 CALM      30.03R
ST. CROIX      CLOUDY    73  70  88 N5        30.03
ST. MAARTEN    PTCLDY    77  64  65 E8        30.03R
ST. THOMAS     CLOUDY    73  70  88 SE8       30.03

$$




USA.gov is the U.S. government's official web portal to all federal, state and local government web resources and services.